SCP
0 0 0 0 0 0 0 0 0 0 0 0 0 0 0 0 0 0 0 0 0 0 0 0 0 0 0 0 0 0 0 0 0 0 0 0 0 0 0 0 0 0 0
0 0 0 0 0 0 0 0 0 0 0 0 0 0 0 0 0 0 0 0 0 0 0 0 0 0 0 0 0 0 0 0 0 0 0 0 0 0 0 0 0 0 0
0 0 0 0 0 0 0 0 0 0 0 0 0 0 0 0 0 0 0 0 0 0 0 0 0 0 0 0 0 0 0 0 0 0 0 0 0 0 0 0 0 0 0
0 0 0 0 0 0 0 0 0 0 0 0 0 0 0 0 0 0 0 0 0 0 0 0 0 0 0 0 0 0 0 0 0 0 0 0 0 0 0 0 0 0 0
0 0 0 0 0 0 0 0 0 0 0 0 0 0 0 0 0 0 0 0 0 0 0 0 0 0 0 0 0 0 0 0 0 0 0 0 0 0 0 0 0 0 0
0 0 0 0 0 0 0 0 0 0 0 0 0 0 0 0 0 0 0 0 0 0 0 0 0 0 0 0 0 0 0 0 0 0 0 0 0 0 0 0 0 0 0
0 0 0 0 0 0 0 0 0 0 0 0 0 0 0 0 0 0 0 0 0 0 0 0 0 0 0 0 0 0 0 0 0 0 0 0 0 0 0 0 0 0 0
0 0 0 0 0 0 0 0 0 0 0 0 0 0 0 0 0 0 0 0 0 0 0 0 0 0 0 0 0 0 0 0 0 0 0 0 0 0 0 0 0 0 0
0 0 0 0 0 0 0 0 0 0 0 0 0 0 0 0 0 0 0 0 0 0 0 0 0 0 0 0 0 0 0 0 0 0 0 0 0 0 0 0 0 0 0
0 0 0 0 0 0 0 0 0 0 0 0 0 0 0 0 0 0 0 0 0 0 0 0 0 0 0 0 0 0 0 0 0 0 0 0 0 0 0 0 0 0 0
0 0 0 0 0 0 0 0 0 0 0 0 0 0 0 0 0 0 0 0 0 0 0 0 0 0 0 0 0 0 0 0 0 0 0 0 0 0 0 0 0 0 0
0 0 0 0 0 0 0 0 0 0 0 0 0 0 0 0 0 0 0 0 0 0 0 0 0 0 0 0 0 0 0 0 0 0 0 0 0 0 0 0 0 0 0
0 0 0 0 0 0 0 0 0 0 0 0 0 0 0 0 0 0 -0 -0 -0 0 0 0 0 0 0 0 0 0 0 0 0 0 0 0 0 0 0 0 0 0 0
0 0 0 0 0 0 0 0 0 0 0 0 0 0 0 0 0 0 0 0 0 0 0 0 0 0 0 0 0 0 0 0 0 0 0 0 0 0 0 0 0 0 0
0 0 0 0 0 0 0 0 0 0 0 0 0 0 0 0 0 0 0 0 0 0 0 0 0 0 0 0 0 0 0 0 0 0 0 0 0 0 0 0 0 0 0
0 0 0 0 0 0 0 0 0 0 0 0 0 0 0 0 0 0 0 0 0 0 0 0 0 0 0 0 0 0 0 0 0 0 0 0 0 0 0 0 0 0 0
0 0 0 0 0 0 0 0 0 0 0 0 0 0 0 0 0 0 0 0 0 0 0 0 0 0 0 0 0 0 0 0 0 0 0 0 0 0 0 0 0 0 0
0 0 0 0 0 0 0 0 0 0 0 0 0 0 0 0 0 0 0 0 0 0 0 0 0 0 0 0 0 0 0 0 0 0 0 0 0 0 0 0 0 0 0
0 0 0 0 0 0 0 0 0 0 0 0 0 0 0 0 0 0 0 0 0 0 0 0 0 0 0 0 0 0 0 0 0 0 0 0 0 0 0 0 0 0 0
0 0 0 0 0 0 0 0 0 0 0 0 0 0 0 0 0 0 0 0 0 0 0 0 0 0 0 0 0 0 0 0 0 0 0 0 0 0 0 0 0 0 0
0 0 0 0 0 0 0 0 0 0 0 0 0 0 0 0 0 0 0 0 0 0 0 0 0 0 0 0 0 0 0 0 0 0 0 0 0 0 0 0 0 0 0
0 0 0 0 0 0 0 0 0 0 0 0 0 0 0 0 0 0 0 0 0 0 0 0 0 0 0 0 0 0 0 0 0 0 0 0 0 0 0 0 0 0 0
0 0 0 0 0 0 0 0 0 0 0 0 0 0 0 0 0 0 0 0 0 0 0 0 0 0 0 0 0 0 0 0 0 0 0 0 0 0 0 0 0 0 0
0 0 0 0 0 0 0 0 0 0 0 0 0 0 0 0 0 0 0 0 0 0 0 0 0 0 0 0 0 0 0 0 0 0 0 0 0 0 0 0 0 0 0
0 0 0 0 0 0 0 0 0 0 0 0 0 0 0 0 0 0 0 0 0 0 0 0 0 0 0 0 0 0 0 0 0 0 0 0 0 0 0 0 0 0 0
0 0 0 0 0 0 0 0 0 0 0 0 0 0 0 0 0 0 0 0 0 0 0 0 0 0 0 0 0 0 0 0 0 0 0 0 0 0 0 0 0 0 0
Wind_Speed_500mb
17 17 16 14 13 13 13 14 17 20 22 25 29 32 34 37 40 43 45 47 50 50 51 52 54 54 56 56 54 53 54 52 61 86 71 75 75 77 79 79 77 81 87
20 17 13 10 10 14 16 18 21 24 26 27 29 30 32 34 37 38 41 45 48 49 50 53 54 53 53 52 53 54 55 54 60 80 84 83 79 78 84 84 85 84 90
27 21 16 12 13 17 20 22 24 27 29 31 32 33 35 38 40 40 42 44 47 49 52 54 54 53 55 56 57 60 63 62 62 72 92 86 87 85 88 90 93 97 98
40 34 26 22 18 20 26 30 31 32 32 34 36 37 37 39 40 41 42 44 48 50 51 53 55 56 57 59 61 64 67 70 74 77 85 94 93 91 89 95 103 98 108
51 46 39 34 31 28 34 39 38 38 38 39 40 41 42 42 42 43 45 46 50 52 55 57 59 59 58 58 62 65 65 69 74 80 88 93 97 96 92 96 102 110 118
60 57 51 47 43 39 40 47 48 45 44 44 44 43 44 43 41 42 44 47 50 55 58 59 60 61 58 58 57 60 63 66 73 76 89 94 99 92 93 92 89 107 126
64 60 59 59 61 56 52 52 58 54 50 50 48 46 45 44 42 44 47 50 53 56 59 62 63 64 63 62 63 66 66 64 67 73 85 91 98 89 86 94 90 99 119
59 55 61 69 70 72 71 65 66 63 57 54 51 48 46 43 43 44 48 53 56 58 60 61 63 65 63 61 65 70 72 71 72 76 80 88 88 88 83 92 99 104 117
69 69 71 73 77 79 80 76 72 67 61 58 53 50 47 42 43 44 48 52 56 59 60 62 64 66 65 58 62 71 76 77 74 76 79 84 87 88 83 83 91 88 111
66 67 63 62 62 67 71 75 75 69 63 59 55 51 45 43 43 46 49 54 57 60 59 61 64 65 62 53 55 64 80 81 79 84 90 93 90 89 80 70 72 81 91
45 51 57 58 61 63 66 68 71 69 64 60 57 51 45 43 45 47 49 52 54 56 58 60 60 62 60 57 52 62 71 76 82 87 94 97 94 89 81 72 68 72 89
52 58 60 60 58 58 59 61 66 66 64 61 59 53 48 47 48 49 49 50 50 54 59 61 66 66 64 65 62 62 65 66 77 86 91 93 91 87 81 80 76 73 76
53 55 56 57 56 55 58 62 65 64 63 61 59 55 52 52 53 51 52 52 52 53 58 64 65 64 68 63 57 55 57 64 72 79 84 87 85 85 83 81 79 78 79
56 54 50 49 49 50 55 59 61 60 58 56 54 54 54 54 53 51 50 53 55 58 66 72 73 73 69 63 61 61 57 60 65 71 75 78 80 80 78 75 80 80 82
48 47 46 45 43 47 51 54 55 54 54 53 52 55 56 56 52 53 53 54 57 63 68 71 73 70 71 63 64 61 57 55 60 60 63 67 68 71 70 69 69 69 63
40 38 39 40 41 43 45 46 49 50 51 51 52 55 53 55 55 56 57 58 64 67 67 67 66 64 60 61 61 61 52 46 47 50 48 53 58 59 60 60 56 54 54
37 37 35 36 38 39 41 42 43 47 47 48 48 49 50 52 53 54 56 59 59 62 58 55 56 55 53 52 49 48 48 41 38 41 41 41 45 46 49 50 48 44 43
27 28 31 34 36 36 37 41 43 45 45 43 44 42 44 44 47 52 54 52 49 45 45 47 48 45 44 40 35 34 34 34 33 35 38 39 40 40 41 42 41 38 33
28 32 33 37 40 40 40 39 39 40 42 46 47 43 44 41 41 45 46 48 46 42 39 37 36 32 29 26 23 22 23 26 31 34 36 36 35 34 34 35 35 30 24
31 35 39 38 39 42 44 44 44 43 42 43 43 43 42 39 36 36 39 39 36 32 29 25 22 21 18 18 19 21 25 27 27 28 29 31 31 30 28 28 28 26 20
39 39 41 40 39 37 38 41 41 42 38 36 35 35 35 33 29 27 25 24 23 20 16 14 14 14 16 19 21 23 25 27 28 28 26 25 26 24 22 21 22 22 19
39 38 37 36 35 37 37 33 31 30 27 25 24 23 21 19 19 18 17 16 13 11 12 13 15 17 20 22 24 24 25 27 27 26 26 23 23 22 19 19 19 18 14
33 32 31 29 28 27 25 23 20 18 17 15 13 11 10 10 10 11 12 9 9 11 13 14 16 18 20 22 24 26 27 28 30 29 28 25 22 21 20 22 22 22 20
27 26 25 23 21 17 14 12 10 7 4 1 3 7 11 12 13 12 11 12 11 12 14 15 16 16 19 21 24 25 26 29 31 29 23 22 21 18 17 19 16 14 15
15 14 13 11 9 7 7 8 9 10 12 14 15 15 15 14 13 12 13 11 12 13 15 15 16 18 21 23 23 23 24 24 23 24 24 20 21 18 16 15 15 18 16
9 10 12 13 14 16 17 18 18 18 17 17 16 16 15 14 13 12 11 11 12 14 16 18 20 22 22 22 24 25 24 25 24 23 21 19 17 16 11 8 10 10 9
Wind_Direction_500mb
205 194 189 202 212 220 233 247 263 273 278 277 275 272 271 272 272 273 274 274 274 274 274 276 278 280 282 285 286 287 288 286 279 297 291 296 300 306 307 310 309 309 305
210 199 190 208 243 260 263 267 271 275 278 280 279 278 278 278 278 277 278 277 279 280 281 282 283 284 286 289 292 293 291 288 286 291 298 299 302 307 310 312 314 314 312
218 217 221 229 254 271 282 282 276 278 282 284 286 288 290 290 289 287 286 285 285 286 286 287 290 290 291 292 291 289 288 290 290 292 296 299 303 306 309 310 314 314 312
227 228 233 242 258 282 285 281 280 280 282 289 292 291 290 289 289 287 286 286 288 289 290 291 291 291 290 290 290 289 290 291 293 294 295 298 301 304 307 310 312 312 310
237 239 242 248 255 268 283 282 280 278 283 288 290 292 291 289 290 292 293 293 293 293 293 293 292 291 291 289 289 289 289 290 293 296 296 299 300 305 308 310 309 311 309
243 246 249 254 259 267 274 274 273 273 279 283 285 289 291 292 293 294 293 293 293 294 294 293 292 292 292 291 287 284 283 289 294 296 297 297 298 302 306 307 305 308 307
252 254 258 262 263 263 264 269 267 267 270 274 277 282 286 289 293 295 295 294 294 293 293 293 293 295 299 301 301 297 293 293 294 298 297 296 300 305 306 304 302 301 297
251 253 265 269 268 265 260 260 263 259 260 266 272 276 281 285 289 293 295 296 296 296 297 297 297 299 302 304 301 298 297 299 300 302 300 300 301 304 300 303 301 299 300
264 268 269 271 270 267 262 259 259 256 257 261 266 271 278 285 292 297 300 301 301 300 299 298 298 298 301 304 298 295 297 298 306 304 302 303 304 306 308 305 301 300 300
268 272 274 271 271 269 265 258 255 252 253 257 262 267 276 287 293 299 302 303 302 300 298 297 296 295 296 299 297 299 299 308 310 307 306 306 306 308 311 306 307 300 293
262 269 268 268 271 270 264 255 249 248 250 253 258 263 272 282 290 296 300 298 297 294 294 298 301 304 309 305 299 298 302 307 305 306 307 308 311 314 316 314 306 298 293
275 273 269 270 271 270 264 252 247 248 251 253 257 262 271 282 291 297 300 299 300 299 303 305 304 303 304 305 298 301 301 300 303 306 307 311 313 315 315 314 313 311 308
278 279 275 272 268 264 252 245 244 247 250 254 259 266 275 284 290 297 302 305 306 299 300 305 304 301 305 309 304 303 306 308 307 308 310 311 313 315 315 319 319 320 316
282 279 274 269 264 255 248 244 245 248 253 259 267 275 281 287 293 298 302 303 306 307 310 310 310 309 312 313 313 312 311 309 309 309 311 313 316 318 320 323 323 326 324
281 278 273 265 254 246 243 244 246 251 256 264 272 278 285 289 293 296 300 304 304 306 305 305 308 310 314 313 313 313 313 313 311 311 313 315 318 320 323 326 327 328 328
280 270 262 257 252 249 250 252 255 259 265 270 277 282 286 292 296 297 302 302 304 308 305 305 304 307 311 311 315 316 317 318 316 314 319 322 321 324 328 330 332 334 331
281 278 272 265 260 259 262 267 272 277 277 278 282 286 291 294 298 302 299 301 304 302 301 300 301 305 309 312 316 318 320 324 324 324 329 334 331 334 336 338 339 340 337
273 267 267 266 264 265 266 270 273 277 282 287 291 293 293 296 298 298 298 299 302 303 301 300 302 306 310 311 317 321 326 333 337 337 336 340 340 342 343 343 344 343 340
269 266 263 264 265 265 267 271 275 279 283 287 288 291 295 300 301 299 302 304 306 307 306 304 304 308 310 312 321 325 330 335 336 338 339 339 340 342 341 343 344 343 338
265 266 268 268 273 277 278 280 280 279 284 291 295 297 300 302 301 300 301 308 312 312 312 312 315 321 323 328 329 330 329 330 335 339 338 338 338 341 344 348 349 354 3
277 278 277 275 276 276 278 280 285 289 291 290 290 294 295 306 310 317 319 322 324 328 331 341 345 339 341 338 333 331 333 336 338 339 340 344 342 345 351 357 7 15 25
274 273 273 276 282 283 283 285 289 289 290 293 299 302 307 319 330 337 348 354 358 1 18 9 0 351 351 348 343 340 342 345 344 343 344 347 351 350 356 360 10 26 42
269 275 280 284 285 285 287 287 283 286 294 301 305 312 337 9 25 29 40 39 24 20 22 16 10 7 8 8 6 2 2 3 1 358 355 353 358 -0 4 10 14 24 24
275 274 275 276 277 275 273 276 275 270 251 214 85 70 67 67 65 62 53 42 30 29 31 28 21 20 22 20 16 13 13 14 12 8 7 4 6 6 7 7 6 18 35
254 250 246 240 229 207 176 164 152 139 119 106 97 90 86 80 74 65 57 48 37 32 35 32 28 27 26 23 15 12 9 3 357 355 356 2 359 357 5 8 9 30 37
175 167 158 149 142 136 131 129 129 123 114 106 101 94 87 81 73 65 57 51 44 39 35 30 25 22 20 15 12 10 8 6 7 3 358 354 348 342 348 16 40 61 54
Wind_Speed_850mb
17 17 16 14 13 13 13 14 17 20 22 25 29 32 34 37 40 43 45 47 50 50 51 52 54 54 56 56 54 53 54 52 61 86 71 75 75 77 79 79 77 81 87
20 17 13 10 10 14 16 18 21 24 26 27 29 30 32 34 37 38 41 45 48 49 50 53 54 53 53 52 53 54 55 54 60 80 84 83 79 78 84 84 85 84 90
27 21 16 12 13 17 20 22 24 27 29 31 32 33 35 38 40 40 42 44 47 49 52 54 54 53 55 56 57 60 63 62 62 72 92 86 87 85 88 90 93 97 98
40 34 26 22 18 20 26 30 31 32 32 34 36 37 37 39 40 41 42 44 48 50 51 53 55 56 57 59 61 64 67 70 74 77 85 94 93 91 89 95 103 98 108
51 46 39 34 31 28 34 39 38 38 38 39 40 41 42 42 42 43 45 46 50 52 55 57 59 59 58 58 62 65 65 69 74 80 88 93 97 96 92 96 102 110 118
60 57 51 47 43 39 40 47 48 45 44 44 44 43 44 43 41 42 44 47 50 55 58 59 60 61 58 58 57 60 63 66 73 76 89 94 99 92 93 92 89 107 126
64 60 59 59 61 56 52 52 58 54 50 50 48 46 45 44 42 44 47 50 53 56 59 62 63 64 63 62 63 66 66 64 67 73 85 91 98 89 86 94 90 99 119
59 55 61 69 70 72 71 65 66 63 57 54 51 48 46 43 43 44 48 53 56 58 60 61 63 65 63 61 65 70 72 71 72 76 80 88 88 88 83 92 99 104 117
69 69 71 73 77 79 80 76 72 67 61 58 53 50 47 42 43 44 48 52 56 59 60 62 64 66 65 58 62 71 76 77 74 76 79 84 87 88 83 83 91 88 111
66 67 63 62 62 67 71 75 75 69 63 59 55 51 45 43 43 46 49 54 57 60 59 61 64 65 62 53 55 64 80 81 79 84 90 93 90 89 80 70 72 81 91
45 51 57 58 61 63 66 68 71 69 64 60 57 51 45 43 45 47 49 52 54 56 58 60 60 62 60 57 52 62 71 76 82 87 94 97 94 89 81 72 68 72 89
52 58 60 60 58 58 59 61 66 66 64 61 59 53 48 47 48 49 49 50 50 54 59 61 66 66 64 65 62 62 65 66 77 86 91 93 91 87 81 80 76 73 76
53 55 56 57 56 55 58 62 65 64 63 61 59 55 52 52 53 51 52 52 52 53 58 64 65 64 68 63 57 55 57 64 72 79 84 87 85 85 83 81 79 78 79
56 54 50 49 49 50 55 59 61 60 58 56 54 54 54 54 53 51 50 53 55 58 66 72 73 73 69 63 61 61 57 60 65 71 75 78 80 80 78 75 80 80 82
48 47 46 45 43 47 51 54 55 54 54 53 52 55 56 56 52 53 53 54 57 63 68 71 73 70 71 63 64 61 57 55 60 60 63 67 68 71 70 69 69 69 63
40 38 39 40 41 43 45 46 49 50 51 51 52 55 53 55 55 56 57 58 64 67 67 67 66 64 60 61 61 61 52 46 47 50 48 53 58 59 60 60 56 54 54
37 37 35 36 38 39 41 42 43 47 47 48 48 49 50 52 53 54 56 59 59 62 58 55 56 55 53 52 49 48 48 41 38 41 41 41 45 46 49 50 48 44 43
27 28 31 34 36 36 37 41 43 45 45 43 44 42 44 44 47 52 54 52 49 45 45 47 48 45 44 40 35 34 34 34 33 35 38 39 40 40 41 42 41 38 33
28 32 33 37 40 40 40 39 39 40 42 46 47 43 44 41 41 45 46 48 46 42 39 37 36 32 29 26 23 22 23 26 31 34 36 36 35 34 34 35 35 30 24
31 35 39 38 39 42 44 44 44 43 42 43 43 43 42 39 36 36 39 39 36 32 29 25 22 21 18 18 19 21 25 27 27 28 29 31 31 30 28 28 28 26 20
39 39 41 40 39 37 38 41 41 42 38 36 35 35 35 33 29 27 25 24 23 20 16 14 14 14 16 19 21 23 25 27 28 28 26 25 26 24 22 21 22 22 19
39 38 37 36 35 37 37 33 31 30 27 25 24 23 21 19 19 18 17 16 13 11 12 13 15 17 20 22 24 24 25 27 27 26 26 23 23 22 19 19 19 18 14
33 32 31 29 28 27 25 23 20 18 17 15 13 11 10 10 10 11 12 9 9 11 13 14 16 18 20 22 24 26 27 28 30 29 28 25 22 21 20 22 22 22 20
27 26 25 23 21 17 14 12 10 7 4 1 3 7 11 12 13 12 11 12 11 12 14 15 16 16 19 21 24 25 26 29 31 29 23 22 21 18 17 19 16 14 15
15 14 13 11 9 7 7 8 9 10 12 14 15 15 15 14 13 12 13 11 12 13 15 15 16 18 21 23 23 23 24 24 23 24 24 20 21 18 16 15 15 18 16
9 10 12 13 14 16 17 18 18 18 17 17 16 16 15 14 13 12 11 11 12 14 16 18 20 22 22 22 24 25 24 25 24 23 21 19 17 16 11 8 10 10 9
Wind_Direction_850mb
205 194 189 202 212 220 233 247 263 273 278 277 275 272 271 272 272 273 274 274 274 274 274 276 278 280 282 285 286 287 288 286 279 297 291 296 300 306 307 310 309 309 305
210 199 190 208 243 260 263 267 271 275 278 280 279 278 278 278 278 277 278 277 279 280 281 282 283 284 286 289 292 293 291 288 286 291 298 299 302 307 310 312 314 314 312
218 217 221 229 254 271 282 282 276 278 282 284 286 288 290 290 289 287 286 285 285 286 286 287 290 290 291 292 291 289 288 290 290 292 296 299 303 306 309 310 314 314 312
227 228 233 242 258 282 285 281 280 280 282 289 292 291 290 289 289 287 286 286 288 289 290 291 291 291 290 290 290 289 290 291 293 294 295 298 301 304 307 310 312 312 310
237 239 242 248 255 268 283 282 280 278 283 288 290 292 291 289 290 292 293 293 293 293 293 293 292 291 291 289 289 289 289 290 293 296 296 299 300 305 308 310 309 311 309
243 246 249 254 259 267 274 274 273 273 279 283 285 289 291 292 293 294 293 293 293 294 294 293 292 292 292 291 287 284 283 289 294 296 297 297 298 302 306 307 305 308 307
252 254 258 262 263 263 264 269 267 267 270 274 277 282 286 289 293 295 295 294 294 293 293 293 293 295 299 301 301 297 293 293 294 298 297 296 300 305 306 304 302 301 297
251 253 265 269 268 265 260 260 263 259 260 266 272 276 281 285 289 293 295 296 296 296 297 297 297 299 302 304 301 298 297 299 300 302 300 300 301 304 300 303 301 299 300
264 268 269 271 270 267 262 259 259 256 257 261 266 271 278 285 292 297 300 301 301 300 299 298 298 298 301 304 298 295 297 298 306 304 302 303 304 306 308 305 301 300 300
268 272 274 271 271 269 265 258 255 252 253 257 262 267 276 287 293 299 302 303 302 300 298 297 296 295 296 299 297 299 299 308 310 307 306 306 306 308 311 306 307 300 293
262 269 268 268 271 270 264 255 249 248 250 253 258 263 272 282 290 296 300 298 297 294 294 298 301 304 309 305 299 298 302 307 305 306 307 308 311 314 316 314 306 298 293
275 273 269 270 271 270 264 252 247 248 251 253 257 262 271 282 291 297 300 299 300 299 303 305 304 303 304 305 298 301 301 300 303 306 307 311 313 315 315 314 313 311 308
278 279 275 272 268 264 252 245 244 247 250 254 259 266 275 284 290 297 302 305 306 299 300 305 304 301 305 309 304 303 306 308 307 308 310 311 313 315 315 319 319 320 316
282 279 274 269 264 255 248 244 245 248 253 259 267 275 281 287 293 298 302 303 306 307 310 310 310 309 312 313 313 312 311 309 309 309 311 313 316 318 320 323 323 326 324
281 278 273 265 254 246 243 244 246 251 256 264 272 278 285 289 293 296 300 304 304 306 305 305 308 310 314 313 313 313 313 313 311 311 313 315 318 320 323 326 327 328 328
280 270 262 257 252 249 250 252 255 259 265 270 277 282 286 292 296 297 302 302 304 308 305 305 304 307 311 311 315 316 317 318 316 314 319 322 321 324 328 330 332 334 331
281 278 272 265 260 259 262 267 272 277 277 278 282 286 291 294 298 302 299 301 304 302 301 300 301 305 309 312 316 318 320 324 324 324 329 334 331 334 336 338 339 340 337
273 267 267 266 264 265 266 270 273 277 282 287 291 293 293 296 298 298 298 299 302 303 301 300 302 306 310 311 317 321 326 333 337 337 336 340 340 342 343 343 344 343 340
269 266 263 264 265 265 267 271 275 279 283 287 288 291 295 300 301 299 302 304 306 307 306 304 304 308 310 312 321 325 330 335 336 338 339 339 340 342 341 343 344 343 338
265 266 268 268 273 277 278 280 280 279 284 291 295 297 300 302 301 300 301 308 312 312 312 312 315 321 323 328 329 330 329 330 335 339 338 338 338 341 344 348 349 354 3
277 278 277 275 276 276 278 280 285 289 291 290 290 294 295 306 310 317 319 322 324 328 331 341 345 339 341 338 333 331 333 336 338 339 340 344 342 345 351 357 7 15 25
274 273 273 276 282 283 283 285 289 289 290 293 299 302 307 319 330 337 348 354 358 1 18 9 0 351 351 348 343 340 342 345 344 343 344 347 351 350 356 360 10 26 42
269 275 280 284 285 285 287 287 283 286 294 301 305 312 337 9 25 29 40 39 24 20 22 16 10 7 8 8 6 2 2 3 1 358 355 353 358 -0 4 10 14 24 24
275 274 275 276 277 275 273 276 275 270 251 214 85 70 67 67 65 62 53 42 30 29 31 28 21 20 22 20 16 13 13 14 12 8 7 4 6 6 7 7 6 18 35
254 250 246 240 229 207 176 164 152 139 119 106 97 90 86 80 74 65 57 48 37 32 35 32 28 27 26 23 15 12 9 3 357 355 356 2 359 357 5 8 9 30 37
175 167 158 149 142 136 131 129 129 123 114 106 101 94 87 81 73 65 57 51 44 39 35 30 25 22 20 15 12 10 8 6 7 3 358 354 348 342 348 16 40 61 54